Back to catalog

COSMOS 970 DEB

AliveLEO
NORAD 65012·DEBRIS·🇷🇺 Russia

Launched Dec 21, 1977 from Baikonur Cosmodrome

Loading…

Next Passes (next 24 hours)

TLE

AgingSource: Space-Track

Epoch: Sep 11, 2026, 04:40 UTC

1 65012U 77121DZ  26254.19452941  .00000607  00000-0  46124-3 0  9999
2 65012  65.6292  65.6548 0138919 253.5569 105.0197 13.96673263651232

Track COSMOS 970 DEB in real time with AllMySat

Download on the App Store